Weather History for KHSB - January, 2012

Change the Weather History Date:

Thursday, January 12, 2012

  Actual Average (KMWA) Record (KMWA)
Temperature  
Mean Temperature 32 °F -  
Max Temperature 42 °F 35 °F 66 °F (2005)
Min Temperature 23 °F 15 °F -18 °F (1977)
Degree Days  
Heating Degree Days 32    
Moisture  
Dew Point 27 °F    
Average Humidity 84    
Maximum Humidity 100    
Minimum Humidity 68    
Precipitation  
Precipitation 0.01 in - - ()
Sea Level Pressure  
Sea Level Pressure 29.70 in    
Wind  
Wind Speed 13 mph (WNW)    
Max Wind Speed 24 mph    
Max Gust Speed 32 mph    
Visibility 7 miles    
Events Snow    
Averages and records for this station are not official NWS values.
T = Trace of Precipitation, MM = Missing Value Source: NWS Daily Summary

Daily Weather History Graph

Daily Weather History Graph

Search for Another Location

Airport or City:

Trip Planner

Search our weather history database for the weather conditions in past years. The results will help you decide how hot, cold, wet, or windy it might be!

Date:

Astronomy

Jan. 12, 2012 Rise Set
Actual Time 7:09 AM CST 4:55 PM CST
Civil Twilight 6:40 AM CST 5:24 PM CST
Nautical Twilight 6:08 AM CST 5:56 PM CST
Astronomical Twilight 5:36 AM CST 6:28 PM CST
Moon 8:55 PM CST (1/12) 8:57 AM CST (1/12)
Length of Visible Light 10h 43m
Length of Day
9h 46m
Waning Gibbous, 87% of the Moon is Illuminated
Jan 12
Waning Gibbous
Jan 16
Last Quarter
Jan 23
New
Jan 30
First Quarter
Feb 7
Full

Hourly Weather History & Observations

Time (CST) Temp. Windchill Dew Point Humidity Pressure Visibility Wind Dir Wind Speed Gust Speed Precip Events Conditions
12:15 AM 42.8 °F 39.3 °F 42.8 °F 100% 29.59 in 0.8 mi SW 5.8 mph - N/A   Overcast
12:35 AM 42.8 °F 38.6 °F 42.8 °F 100% 29.59 in 0.8 mi SW 6.9 mph - N/A   Overcast
12:55 AM 42.8 °F 40.1 °F 42.8 °F 100% 29.59 in 1.0 mi SW 4.6 mph - N/A   Overcast
1:15 AM 42.8 °F - 42.8 °F 100% 29.59 in 2.5 mi Calm Calm - N/A   Overcast
1:35 AM 41.0 °F 35.8 °F 41.0 °F 100% 29.60 in 2.5 mi West 8.1 mph - N/A   Mostly Cloudy
1:55 AM 41.0 °F 34.7 °F 41.0 °F 100% 29.60 in 7.0 mi WNW 10.4 mph - N/A   Scattered Clouds
2:15 AM 41.0 °F 34.3 °F 41.0 °F 100% 29.61 in 7.0 mi NW 11.5 mph - N/A   Clear
2:35 AM 39.2 °F 30.8 °F 37.4 °F 93% 29.62 in 10.0 mi WNW 15.0 mph 24.2 mph N/A   Clear
2:55 AM 39.2 °F 31.6 °F 37.4 °F 93% 29.62 in 7.0 mi NW 12.7 mph 19.6 mph N/A   Mostly Cloudy
3:15 AM 37.4 °F 30.8 °F 35.6 °F 93% 29.60 in 7.0 mi NNW 9.2 mph - N/A   Mostly Cloudy
3:35 AM 37.4 °F 31.4 °F 35.6 °F 93% 29.62 in 7.0 mi WNW 8.1 mph - N/A   Mostly Cloudy
3:55 AM 39.2 °F 33.0 °F 35.6 °F 87% 29.62 in 7.0 mi WNW 9.2 mph - N/A   Overcast
4:15 AM 39.2 °F 31.6 °F 37.4 °F 93% 29.62 in 7.0 mi WNW 12.7 mph 18.4 mph N/A   Overcast
4:35 AM 37.4 °F 29.8 °F 35.6 °F 93% 29.62 in 7.0 mi WNW 11.5 mph - N/A   Overcast
4:55 AM 37.4 °F 28.9 °F 35.6 °F 93% 29.63 in 7.0 mi WNW 13.8 mph 19.6 mph N/A   Overcast
5:15 AM 35.6 °F 26.2 °F 35.6 °F 100% 29.63 in 7.0 mi WNW 15.0 mph 19.6 mph 0.01 in   Overcast
5:35 AM 35.6 °F 26.6 °F 33.8 °F 93% 29.64 in 7.0 mi NW 13.8 mph - 0.01 in   Overcast
5:55 AM 35.6 °F 25.5 °F 33.8 °F 93% 29.65 in 7.0 mi WNW 17.3 mph 24.2 mph 0.01 in   Overcast
6:15 AM 33.8 °F 23.2 °F 32.0 °F 93% 29.66 in 7.0 mi WNW 17.3 mph 24.2 mph N/A   Overcast
6:35 AM 33.8 °F 24.3 °F 32.0 °F 93% 29.66 in 10.0 mi WNW 13.8 mph - N/A   Overcast
6:55 AM 32.0 °F 20.1 °F 30.2 °F 93% 29.68 in 10.0 mi WNW 19.6 mph 27.6 mph N/A   Overcast
7:15 AM 32.0 °F 20.8 °F 28.4 °F 87% 29.68 in 10.0 mi WNW 17.3 mph 25.3 mph N/A   Overcast
7:35 AM 32.0 °F 20.1 °F 28.4 °F 87% 29.68 in 7.0 mi WNW 19.6 mph 25.3 mph N/A   Overcast
7:55 AM 30.2 °F 17.8 °F 26.6 °F 86% 29.69 in 1.2 mi WNW 19.6 mph 29.9 mph N/A Snow Light Snow
8:15 AM 30.2 °F 19.3 °F 26.6 °F 86% 29.70 in 7.0 mi NW 15.0 mph 25.3 mph N/A   Overcast
8:35 AM 30.2 °F 19.3 °F 23.0 °F 75% 29.70 in 10.0 mi WNW 15.0 mph 23.0 mph N/A   Overcast
8:55 AM 28.4 °F 17.0 °F 24.8 °F 86% 29.71 in 7.0 mi WNW 15.0 mph 21.9 mph N/A Snow Light Snow
9:15 AM 30.2 °F 18.1 °F 26.6 °F 86% 29.70 in 10.0 mi WNW 18.4 mph 24.2 mph N/A   Overcast
9:35 AM 28.4 °F 17.0 °F 23.0 °F 80% 29.72 in 7.0 mi WNW 15.0 mph 24.2 mph N/A Snow Light Snow
9:55 AM 28.4 °F 14.4 °F 21.2 °F 74% 29.72 in 7.0 mi WNW 23.0 mph 27.6 mph N/A Snow Light Snow
10:15 AM 28.4 °F 14.7 °F 21.2 °F 74% 29.72 in 10.0 mi WNW 21.9 mph 26.5 mph N/A   Overcast
10:35 AM 26.6 °F 13.4 °F 21.2 °F 80% 29.73 in 7.0 mi WNW 18.4 mph 25.3 mph N/A Snow Light Snow
10:55 AM 26.6 °F 13.4 °F 21.2 °F 80% 29.74 in 2.5 mi West 18.4 mph 25.3 mph N/A Snow Light Snow
11:15 AM 26.6 °F 13.1 °F 21.2 °F 80% 29.73 in 5.0 mi West 19.6 mph 27.6 mph N/A Snow Light Snow
11:35 AM 26.6 °F 12.4 °F 19.4 °F 74% 29.72 in 10.0 mi West 21.9 mph 29.9 mph N/A   Overcast
11:55 AM 26.6 °F 12.4 °F 17.6 °F 69% 29.73 in 10.0 mi WNW 21.9 mph 29.9 mph N/A   Overcast
12:15 PM 26.6 °F 13.1 °F 17.6 °F 69% 29.72 in 10.0 mi WNW 19.6 mph 25.3 mph N/A   Overcast
12:35 PM 26.6 °F 12.4 °F 17.6 °F 69% 29.72 in 10.0 mi WNW 21.9 mph 27.6 mph N/A   Overcast
12:55 PM 26.6 °F 12.7 °F 17.6 °F 69% 29.71 in 10.0 mi West 20.7 mph 26.5 mph N/A Snow Light Snow
1:15 PM 26.6 °F 13.4 °F 19.4 °F 74% 29.71 in 5.0 mi West 18.4 mph 24.2 mph N/A Snow Light Snow
1:35 PM 26.6 °F 13.4 °F 21.2 °F 80% 29.71 in 2.0 mi West 18.4 mph 21.9 mph N/A Snow Light Snow
1:55 PM 26.6 °F 13.8 °F 21.2 °F 80% 29.72 in 1.5 mi West 17.3 mph 23.0 mph N/A Snow Light Snow
2:15 PM 26.6 °F 13.4 °F 19.4 °F 74% 29.72 in 5.0 mi West 18.4 mph 28.8 mph N/A Snow Light Snow
2:35 PM 28.4 °F 14.1 °F 19.4 °F 69% 29.73 in 10.0 mi West 24.2 mph 29.9 mph N/A Snow Light Snow
2:55 PM 26.6 °F 12.4 °F 19.4 °F 74% 29.74 in 7.0 mi West 21.9 mph 27.6 mph N/A Snow Light Snow
3:15 PM 26.6 °F 12.4 °F 19.4 °F 74% 29.76 in 3.0 mi West 21.9 mph 31.1 mph N/A Snow Light Snow
3:35 PM 26.6 °F 12.0 °F 19.4 °F 74% 29.77 in 7.0 mi WNW 23.0 mph 31.1 mph N/A   Overcast
3:55 PM 24.8 °F 11.1 °F 21.2 °F 86% 29.78 in 7.0 mi West 18.4 mph 27.6 mph N/A   Overcast
4:15 PM 26.6 °F 13.4 °F 17.6 °F 69% 29.79 in 10.0 mi West 18.4 mph 29.9 mph N/A Snow Light Snow
4:35 PM 24.8 °F 10.7 °F 17.6 °F 74% 29.80 in 10.0 mi West 19.6 mph 25.3 mph N/A Snow Light Snow
4:55 PM 24.8 °F 10.0 °F 17.6 °F 74% 29.81 in 10.0 mi West 21.9 mph 28.8 mph N/A Snow Light Snow
5:15 PM 23.0 °F 6.9 °F 17.6 °F 80% 29.83 in 7.0 mi West 24.2 mph 32.2 mph N/A Snow Light Snow
5:35 PM 23.0 °F 7.6 °F 17.6 °F 80% 29.84 in 10.0 mi West 21.9 mph 26.5 mph N/A   Overcast
5:55 PM 23.0 °F 8.0 °F 15.8 °F 74% 29.85 in 10.0 mi WNW 20.7 mph 28.8 mph N/A Snow Light Snow
6:15 PM 23.0 °F 8.0 °F 14.0 °F 68% 29.86 in 10.0 mi West 20.7 mph 29.9 mph N/A   Overcast
6:35 PM 23.0 °F 7.6 °F 15.8 °F 74% 29.87 in 10.0 mi West 21.9 mph 27.6 mph N/A   Overcast
6:55 PM 23.0 °F 10.6 °F 17.6 °F 80% 29.87 in 7.0 mi West 13.8 mph 18.4 mph N/A   Overcast
7:15 PM 23.0 °F 9.2 °F 17.6 °F 80% 29.88 in 5.0 mi West 17.3 mph 23.0 mph N/A Snow Light Snow
7:35 PM 21.2 °F 6.0 °F 15.8 °F 80% 29.89 in 7.0 mi West 19.6 mph 26.5 mph N/A   Overcast
7:55 PM 21.2 °F 6.8 °F 17.6 °F 86% 29.90 in 5.0 mi West 17.3 mph 27.6 mph N/A Snow Light Snow
8:15 PM 21.2 °F 6.4 °F 17.6 °F 86% 29.90 in 5.0 mi West 18.4 mph 25.3 mph N/A Snow Light Snow
8:35 PM 21.2 °F 5.6 °F 17.6 °F 86% 29.91 in 4.0 mi West 20.7 mph 27.6 mph N/A Snow Light Snow
8:55 PM 21.2 °F 7.8 °F 15.8 °F 80% 29.91 in 7.0 mi West 15.0 mph 20.7 mph N/A Snow Light Snow
9:15 PM 21.2 °F 4.9 °F 17.6 °F 86% 29.92 in 2.5 mi West 23.0 mph 28.8 mph N/A Snow Light Snow
9:35 PM 21.2 °F 6.4 °F 15.8 °F 80% 29.92 in 7.0 mi West 18.4 mph - N/A Snow Light Snow
9:55 PM 21.2 °F 8.9 °F 14.0 °F 74% 29.93 in 10.0 mi West 12.7 mph 25.3 mph N/A   Overcast
10:15 PM 21.2 °F 6.4 °F 12.2 °F 68% 29.92 in 10.0 mi West 18.4 mph 26.5 mph N/A   Mostly Cloudy
10:35 PM 21.2 °F 8.9 °F 12.2 °F 68% 29.92 in 10.0 mi West 12.7 mph - N/A   Mostly Cloudy
10:55 PM 21.2 °F 10.1 °F 12.2 °F 68% 29.92 in 10.0 mi West 10.4 mph - N/A   Overcast
11:15 PM 21.2 °F 8.9 °F 12.2 °F 68% 29.92 in 10.0 mi West 12.7 mph 17.3 mph N/A   Overcast
11:35 PM 19.4 °F 7.9 °F 12.2 °F 74% 29.92 in 10.0 mi West 10.4 mph 16.1 mph N/A   Overcast
11:55 PM 19.4 °F 8.6 °F 12.2 °F 74% 29.93 in 10.0 mi West 9.2 mph - N/A   Overcast